Fairchild AFB, WA

4:17 AM PDT on September 17, 2014 (GMT -0700)
Fairchild Air Force Base | Change Station
CLOSE
Current Station
Airport
Location: Spokane Fairchild,
Elevation: 2461 ft
Nearby Weather Stations

Elev 2461 ft 47.62 °N, 117.66 °W | Updated 2 hours ago

Clear
Clear
59 °F
Feels Like 59 °F
N
0
Wind Variable Wind from North

Today
High -- | Low -- °F
--% Chance of Precip.
Yesterday
High -- | Low -- °F
Precip. -- in
6:30 AM 6:58 PM
Last Quarter, 37% visible
Pressure 29.81 in
Visibility 7.0 miles
Clouds Clear
Dew Point 36 °F
Humidity 42%
Rainfall 0.00 in
Snow Depth 0 in , 0 in
UV 0 out of 12
Pollen 7.20 out of 12
PM2.5 Moderate
Flu Activity Not available.
METAR KSKA 170855Z COR 00000KT 7SM CLR 15/02 A2985 RMK AO2A SLP094 $ COR 1105

More Conditions Fewer Conditions

Pressure 29.81 in
Visibility 7.0 miles
Clouds Clear
Dew Point 36 °F
Humidity 42%
Rainfall 0.00 in
Snow Depth 0 in , 0 in
UV 0 out of 12
Pollen 7.20 out of 12
PM2.5 Moderate
Flu Activity Not available.
METAR KSKA 170855Z COR 00000KT 7SM CLR 15/02 A2985 RMK AO2A SLP094 $ COR 1105

More Conditions Fewer Conditions

10-Day Weather Forecast

Almanac

Astronomy

Sep. 17, 2014 Rise Set
Actual Time 6:30 AM PDT 6:58 PM PDT
Civil Twilight 5:59 AM PDT 7:29 PM PDT
Nautical Twilight 5:23 AM PDT 8:05 PM PDT
Astronomical Twilight 4:45 AM PDT 8:43 PM PDT
Moon 12:16 AM PDT 3:28 PM PDT
Length of Visible Light 13h 29m
Length of Day
12h 27m
Tomorrow will be 3m 24s shorter.
Last Quarter, 37% of the Moon is Illuminated
Today
Last Quarter
Sep 24
New
Oct 1
First Quarter
Oct 8
Full
Oct 15
Last Quarter

Today's Extremes

State Highs State Lows

Community

WunderPhotos

Upload Photos

1,754,002 photos uploaded!

Nearby

Air Quality

  Air Quality AQ Index Pollutant
Yesterday Good
PM10
Yesterday Good
OZONE
Current Moderate
PM2.5
Tuesday Good
PM10
Tuesday Good
OZONE
Wednesday Good
PM10
Wednesday Good
OZONE

Snow Depth

Station Depth Elevation
Spruce Springs 0 in 5700 ft
Potato Hill 0 in 4500 ft
Green Lake 0 in 6000 ft
Dungeness 0 in 4100 ft
Alpine Meadows 0 in 3500 ft

Earthquake Activity

City Distance Mag. Time & Date
No recent earthquake activity has been reported nearby.
Minimum magnitude displayed is 2.5.

Coastal Water Temperatures

Place Temperature
No Stations Reporting

Nearby Weather Stations